Regional Weather Roundup
Issued by NWS

Home | Current Version | Previous Version | Graphics & Text | Print | Product List | Glossary On
Versions: 1 2 3 4 5 6 7 8 9 10 11 12 13 14 15 16 17 18 19 20 21 22 23 24 25 26 27 28 29 30 31 32 33 34 35 36 37 38 39 40 41 42 43 44 45 46 47 48 49 50
000
ASUS43 KIND 291959
RWRIN

WEATHER ROUNDUP FOR INDIANA
NATIONAL WEATHER SERVICE INDIANAPOLIS IN
400 PM EDT MON MAY 29 2017

NOTE: "FAIR" INDICATES FEW OR NO CLOUDS BELOW 12,000 FEET WITH NO
SIGNIFICANT WEATHER AND/OR OBSTRUCTIONS TO VISIBILITY.

* - STATION DOES NOT REPORT WEATHER SUCH AS PRECIPITATION OR FOG.

+ - STATION NOT QUALITY CONTROLLED BY THE NATIONAL WEATHER SERVICE.
    USE DATA WITH CAUTION...ESPECIALLY DEWPOINT AND RELATIVE
    HUMIDITY OBSERVATIONS.

INZ001>003-010>013-019-020-292100-
NORTHWEST INDIANA

CITY           SKY/WX    TMP DP  RH WIND       PRES   REMARKS
GARY /AIRPORT/ MOSUNNY   79  39  24 W14       29.84S
MICHIGAN CITY+ MOSUNNY   77  48  36 W14G21    29.84S
MONTICELLO +   PTSUNNY   80  43  26 W20G31    29.85S
RENSSELAER +   PTSUNNY   81  32  17 W20G28    29.86S

$$

LMZ046-743>745-292100-
SOUTHERN LAKE MICHIGAN

STATION/POSITION TIME  TEMP    WIND        PRES    WAVE
                       AIR SEA DIR/SP/G            HT
                 (UTC) (F)     (DEG/KT/KT) (MB)    (FT)
BURNS HARBOR     1940   69     260/ 16/ 19 1010.5S
MICHIGAN CITY    1930   66     250/ 18/ 19   N/A
5NW MICH CITY    1950   62 56  270/ 10/ 12   N/A     2

$$

INZ004-005-014>016-021>024-292100-
NORTH CENTRAL INDIANA

CITY           SKY/WX    TMP DP  RH WIND       PRES   REMARKS
ELKHART        SUNNY     75  46  35 W15       29.83F
GOSHEN         MOSUNNY   75  46  35 W14G25    29.84S
SOUTH BEND     MOSUNNY   78  47  33 W21G36    29.83F
WARSAW +       CLOUDY    75  46  35 W18       29.85S

$$

INZ006>009-017-018-025>027-292100-
NORTHEAST INDIANA

CITY           SKY/WX    TMP DP  RH WIND       PRES   REMARKS
ANGOLA *+      MOSUNNY   77  50  38 SW9       29.84S
FORT WAYNE     MOSUNNY   78  50  37 SW20      29.86F
KENDALLVILLE + CLOUDY    77  46  34 W14G22    29.86S

$$

INZ028-029-035-036-043>045-051>053-292100-
WEST CENTRAL INDIANA

CITY           SKY/WX    TMP DP  RH WIND       PRES   REMARKS
CRAWFORDSVL +  PTSUNNY   -8 -25  43 SW15      29.89S WCI -29
GREENCASTLE +  SUNNY     81  50  34 W8        29.91S
LAFAYETTE      PTSUNNY   79  49  34 W13       29.85F
TERRE HAUTE    SUNNY     82  48  30 SW13G20   29.90F

$$

INZ030>032-037>040-046>048-054>057-064-065-292100-
CENTRAL INDIANA

CITY           SKY/WX    TMP DP  RH WIND       PRES   REMARKS
CP ATTERBURY + PTSUNNY   81  52  36 SW13G21   29.92F
COLUMBUS       MOSUNNY   81  46  30 SW14      29.92F
GREENWOOD *+   MOSUNNY   79  52  38 W17       29.92S
INDIANAPOLIS   MOSUNNY   81  50  33 W17G30    29.90S
-EAGLE CREEK   MOSUNNY   81  48  31 W9G20     29.89F
KOKOMO +       PTSUNNY   78  51  38 W14       29.88F
SHELBYVILLE    CLOUDY    78  53  41 W10       29.90S

$$

INZ033-034-041-042-049-050-058-059-292100-
EAST CENTRAL INDIANA

CITY           SKY/WX    TMP DP  RH WIND       PRES   REMARKS
MUNCIE         SUNNY     81  45  28 W16G25    29.90R
RICHMOND +     CLOUDY    73  52  46 W13       29.94S

$$

INZ060-061-067>069-081>083-085>088-292100-
SOUTHWEST INDIANA

CITY           SKY/WX    TMP DP  RH WIND       PRES   REMARKS
EVANSVILLE     MOSUNNY   85  54  34 SW21      29.94F
HUNTINGBURG *+ MOSUNNY   82  56  40 SW14G21   29.94F

$$

INZ062-063-066-070>080-084-089>092-292100-
SOUTH CENTRAL AND SOUTHEAST INDIANA

CITY           SKY/WX    TMP DP  RH WIND       PRES   REMARKS
BLOOMINGTON    MOSUNNY   83  49  30 SW14G21   29.92F
MADISON *+     MOSUNNY   82  45  26 SW10G17   29.97S
SEYMOUR +      MOSUNNY   81  55  41 SW13G21   29.93S

$$




USA.gov is the U.S. government's official web portal to all federal, state and local government web resources and services.